Weather History for Douglas Bisbee, AZ

Change the Weather History Date:

Friday, March 28, 2014

  Actual Average Record
Temperature  
Mean Temperature 55 °F 57 °F  
Max Temperature 73 °F 75 °F 85 °F (1953)
Min Temperature 37 °F 39 °F 25 °F (1994)
Degree Days  
Heating Degree Days 10 8  
Month to date heating degree days 233 301  
Since 1 July heating degree days 2197 2337  
Cooling Degree Days 0 0  
Month to date cooling degree days 0 0  
Year to date cooling degree days 0 0  
Growing Degree Days 5 (Base 50)    
Moisture  
Dew Point 20 °F    
Average Humidity 32    
Maximum Humidity 52    
Minimum Humidity 11    
Precipitation  
Precipitation 0.00 in 0.01 in 0.43 in (1992)
Month to date precipitation 0.44 0.47  
Year to date precipitation 0.44 1.86  
Sea Level Pressure  
Sea Level Pressure 30.00 in    
Wind  
Wind Speed 7 mph (NNW)    
Max Wind Speed 15 mph    
Max Gust Speed 24 mph    
Visibility 10 miles    
Events      
T = Trace of Precipitation, MM = Missing Value Source: NWS Daily Summary

Daily Weather History Graph

Daily Weather History Graph

Search for Another Location

Airport:

Trip Planner

Search our weather history database for the weather conditions in past years. The results will help you decide how hot, cold, wet, or windy it might be!

Date:

Astronomy

Mar. 28, 2014 Rise Set
Actual Time 6:11 AM MST 6:35 PM MST
Civil Twilight 5:47 AM MST 6:59 PM MST
Nautical Twilight 5:19 AM MST 7:28 PM MST
Astronomical Twilight 4:50 AM MST 7:57 PM MST
Moon 4:36 AM MST (3/28) 4:41 PM MST (3/28)
Length of Visible Light 13h 12m
Length of Day
12h 23m
Waning Crescent, 5% of the Moon is Illuminated
Mar 28
Waning Crescent
Mar 30
New
Apr 7
First Quarter
Apr 15
Full
Apr 22
Last Quarter

Hourly Weather History & Observations

Time (MST) Temp. Windchill Dew Point Humidity Pressure Visibility Wind Dir Wind Speed Gust Speed Precip Events Conditions
12:56 AM 45.0 °F 39.7 °F 21.9 °F 40% 29.92 in 10.0 mi NNW 10.4 mph - N/A   Clear
1:56 AM 46.0 °F 41.4 °F 23.0 °F 40% 29.91 in 10.0 mi North 9.2 mph - N/A   Clear
2:56 AM 44.1 °F 39.0 °F 23.0 °F 43% 29.93 in 10.0 mi North 9.2 mph - N/A   Clear
3:56 AM 43.0 °F 37.7 °F 23.0 °F 45% 29.94 in 10.0 mi North 9.2 mph - N/A   Clear
4:56 AM 39.9 °F 35.1 °F 23.0 °F 51% 29.97 in 10.0 mi NNW 6.9 mph - N/A   Clear
5:56 AM 37.0 °F - 21.9 °F 54% 30.00 in 10.0 mi Calm Calm - N/A   Clear
6:56 AM 41.0 °F 38.0 °F 21.9 °F 47% 30.02 in 10.0 mi North 4.6 mph - N/A   Clear
7:56 AM 51.1 °F - 25.0 °F 36% 30.04 in 10.0 mi NW 6.9 mph - N/A   Clear
8:56 AM 55.9 °F - 25.0 °F 30% 30.04 in 10.0 mi WNW 6.9 mph - N/A   Clear
9:56 AM 59.0 °F - 25.0 °F 27% 30.06 in 10.0 mi North 5.8 mph - N/A   Clear
10:56 AM 61.0 °F - 23.0 °F 23% 30.06 in 10.0 mi Calm Calm - N/A   Clear
11:56 AM 64.0 °F - 21.9 °F 20% 30.04 in 10.0 mi Variable 6.9 mph - N/A   Clear
12:56 PM 66.0 °F - 21.0 °F 18% 30.03 in 10.0 mi Calm Calm - N/A   Clear
1:56 PM 70.0 °F - 19.0 °F 14% 29.99 in 10.0 mi WNW 8.1 mph - N/A   Clear
2:56 PM 71.1 °F - 16.0 °F 12% 29.97 in 10.0 mi Variable 5.8 mph - N/A   Clear
3:56 PM 72.0 °F - 16.0 °F 12% 29.95 in 10.0 mi Calm Calm - N/A   Clear
4:56 PM 73.0 °F - 16.0 °F 11% 29.95 in 10.0 mi North 10.4 mph - N/A   Clear
5:56 PM 70.0 °F - 14.0 °F 12% 29.97 in 10.0 mi North 10.4 mph - N/A   Clear
6:56 PM 64.0 °F - 14.0 °F 14% 30.01 in 10.0 mi North 9.2 mph - N/A   Clear
7:56 PM 55.9 °F - 12.0 °F 18% 30.02 in 10.0 mi North 10.4 mph - N/A   Clear
8:56 PM 54.0 °F - 14.0 °F 21% 30.04 in 10.0 mi North 9.2 mph - N/A   Clear
9:56 PM 54.0 °F - 15.1 °F 22% 30.05 in 10.0 mi NNW 11.5 mph - N/A   Clear
10:56 PM 52.0 °F - 18.0 °F 26% 30.05 in 10.0 mi NW 10.4 mph - N/A   Clear
11:56 PM 46.0 °F 41.0 °F 16.0 °F 30% 30.06 in 10.0 mi NNW 10.4 mph - N/A   Clear